{"data":{"norad_id":59314,"epoch":"2026-05-25T01:51:29.398176Z","epoch_age_seconds":61656,"freshness":"FRESH","line1":"1 59314U 24056U   26145.07742359  .00000062  00000+0  11783-4 0  9995","line2":"2 59314  43.0038 151.8031 0001542 281.2522  78.8156 15.27570115122920","mean_motion":15.27570115,"eccentricity":0.0001542,"inclination_deg":43.0038,"raan_deg":151.8031,"arg_perigee_deg":281.2522,"mean_anomaly_deg":78.8156,"bstar":1.1783e-5,"rev_number":12292,"period_min":94.26735871957,"perigee_km":482.02069598514,"apogee_km":484.13669490562,"semimajor_km":6861.2156954454,"source":"CELESTRAK","updated_at":"2026-05-25T13:38:18.901282Z"}}